User: anonymous   Login
Location: Caltech
(34.1382°N, 118.1253°W)
Time: 21:46:08
(UTC-07:00)
Language:

Cosmos 1733 Rocket - Orbit

View from above orbital plane
View from above orbital plane
View from above satellite
View from above satellite

Ground track
Ground track

The orbit data is extracted from the following two-line orbital elements,

1 16612U 86018B   16146.91076240  .00000122  00000-0  11724-4 0  9990
2 16612  82.5156 299.7564 0017519 356.4513 165.0413 14.84081374534010
Epoch (UTC): 25 May 2016 21:51:29
Eccentricity: 0.0017519
inclination: 82.5156°
perigee height: 604 km
apogee height: 629 km
right ascension of ascending node: 299.7564°
argument of perigee: 356.4513°
revolutions per day: 14.84081374
mean anomaly at epoch: 165.0413°
orbit number at epoch: 53401

The dashed part of the orbit path shows where the satellite is in the earth's shadow,  

DLR